This is the latest recevied weather packets stored in our database for station/object PA3BWK. If no packets are shown the sender has not sent any weather packets the latest 10 day(s).
| Time | Temp. | Humidity | Pressure | Rain* | Wind** | Luminosity | Snow |
|---|---|---|---|---|---|---|---|
| 1777639384 | 23.33° C | 31% | 1023.8 hPa | 0 mm | - | 776 W/m² | - |
| 1777639323 | 23.33° C | 29% | 1023.8 hPa | 0 mm | - | 779 W/m² | - |
| 1777639264 | 23.33° C | 29% | 1023.9 hPa | 0 mm | - | 776 W/m² | - |
| 1777639204 | 23.33° C | 31% | 1024 hPa | 0 mm | - | 776 W/m² | - |
| 1777639143 | 23.33° C | 30% | 1023.9 hPa | 0 mm | - | 779 W/m² | - |
| 1777639083 | 23.33° C | 28% | 1023.9 hPa | 0 mm | - | 774 W/m² | - |
| 1777639026 | 23.33° C | 29% | 1023.9 hPa | 0 mm | - | 779 W/m² | - |
| 1777638965 | 23.33° C | 28% | 1024 hPa | 0 mm | - | 781 W/m² | - |
| 1777638904 | 23.33° C | 28% | 1023.9 hPa | 0 mm | - | 783 W/m² | - |
| 1777638844 | 23.33° C | 29% | 1023.9 hPa | 0 mm | - | 783 W/m² | - |
| 1777638769 | 23.33° C | 32% | 1024 hPa | 0 mm | - | 783 W/m² | - |
| 1777638706 | 23.33° C | 29% | 1024 hPa | 0 mm | - | 784 W/m² | - |
| 1777638646 | 23.33° C | 28% | 1024 hPa | 0 mm | - | 783 W/m² | - |
| 1777638583 | 23.33° C | 29% | 1024.1 hPa | 0 mm | - | 781 W/m² | - |
| 1777638521 | 23.33° C | 29% | 1024 hPa | 0 mm | - | 783 W/m² | - |
| 1777638460 | 23.33° C | 29% | 1024 hPa | 0 mm | - | 784 W/m² | - |
| 1777638400 | 23.33° C | 29% | 1024 hPa | 0 mm | - | 790 W/m² | - |
| 1777638337 | 23.33° C | 29% | 1024 hPa | 0 mm | - | 788 W/m² | - |
| 1777638275 | 23.33° C | 29% | 1024 hPa | 0 mm | - | 788 W/m² | - |
| 1777638215 | 22.78° C | 30% | 1024 hPa | 0 mm | - | 786 W/m² | - |
| 1777638149 | 22.78° C | 31% | 1024 hPa | 0 mm | - | 788 W/m² | - |
| 1777638085 | 22.78° C | 30% | 1024 hPa | 0 mm | - | 788 W/m² | - |
| 1777638025 | 22.78° C | 29% | 1024.1 hPa | 0 mm | - | 784 W/m² | - |
| 1777637952 | 22.78° C | 29% | 1024.1 hPa | 0 mm | - | 790 W/m² | - |
| 1777637901 | 22.78° C | 29% | 1024 hPa | 0 mm | - | 788 W/m² | - |
* Rain latest hour (hover to see other rain measurements)
** Current wind speed in m/s (hover to see current wind gust speed)